Kingsport, TN

8:41 AM EDT on September 28, 2016 (GMT -0400)
Tri-Cities Regional Tennessee / Virginia

Weather History for KTRI - January, 2005

Change the Weather History Date:

Thursday, January 6, 2005

  Actual Average Record
Temperature  
Mean Temperature 50 °F 35 °F  
Max Temperature 55 °F 45 °F 69 °F (1998)
Min Temperature 46 °F 25 °F 2 °F (2014)
Degree Days  
Heating Degree Days 14 30  
Month to date heating degree days 180  
Since 1 July heating degree days 1909  
Cooling Degree Days 0 0  
Month to date cooling degree days 0  
Year to date cooling degree days 0  
Moisture  
Dew Point 48 °F    
Average Humidity 89    
Maximum Humidity 100    
Minimum Humidity 77    
Precipitation  
Precipitation 0.13 in 0.10 in 2.29 in (2009)
Month to date precipitation 0.62  
Year to date precipitation 0.62  
Snow  
Snow 0.00 in 0.10 in - ()
Month to date snowfall 0.8  
Since 1 July snowfall 3.5  
Snow Depth -    
Sea Level Pressure  
Sea Level Pressure 29.90 in    
Wind  
Wind Speed 5 mph (SW)    
Max Wind Speed 22 mph    
Max Gust Speed 21 mph    
Visibility 8 miles    
Events Rain    
T = Trace of Precipitation, MM = Missing Value Source: NWS Daily Summary

Daily Weather History Graph

Daily Weather History Graph

Search for Another Location

Airport or City:

Trip Planner

Search our weather history database for the weather conditions in past years. The results will help you decide how hot, cold, wet, or windy it might be!

Date:

Astronomy

Jan. 06, 2005 Rise Set
Actual Time 7:41 AM EST 5:29 PM EST
Civil Twilight 7:13 AM EST 5:57 PM EST
Nautical Twilight 6:41 AM EST 6:30 PM EST
Astronomical Twilight 6:10 AM EST 7:01 PM EST
Moon 3:28 AM EST (1/6) 1:43 PM EST (1/6)
Length of Visible Light 10h 44m
Length of Day
9h 47m
Waning Crescent, 20% of the Moon is Illuminated
Jan 6
Waning Crescent
Jan 10
New
Jan 17
First Quarter
Jan 25
Full
Feb 2
Last Quarter

Hourly Weather History & Observations

Time (EST) Temp. Dew Point Humidity Pressure Visibility Wind Dir Wind Speed Gust Speed Precip Events Conditions
12:53 AM 46.0 °F 45.0 °F 96% 29.88 in 5.0 mi Calm Calm - N/A   Clear
1:53 AM 48.9 °F 46.0 °F 90% 29.85 in 8.0 mi Calm Calm - N/A   Clear
2:53 AM 48.9 °F 46.0 °F 90% 29.84 in 7.0 mi Calm Calm - N/A   Mostly Cloudy
3:53 AM 48.9 °F 46.0 °F 90% 29.82 in 8.0 mi Calm Calm - N/A   Mostly Cloudy
4:53 AM 48.9 °F 46.9 °F 93% 29.81 in 9.0 mi Calm Calm - N/A   Overcast
5:53 AM 50.0 °F 46.9 °F 89% 29.79 in 8.0 mi Calm Calm - N/A   Overcast
6:53 AM 52.0 °F 46.0 °F 80% 29.78 in 10.0 mi West 4.6 mph - N/A   Mostly Cloudy
7:53 AM 48.9 °F 46.9 °F 93% 29.79 in 10.0 mi Calm Calm - N/A   Mostly Cloudy
8:53 AM 52.0 °F 48.9 °F 89% 29.79 in 9.0 mi Calm Calm - N/A   Overcast
9:53 AM 55.0 °F 52.0 °F 89% 29.86 in 3.0 mi WNW 21.9 mph - 0.01 in Rain Light Rain
10:39 AM 53.6 °F 51.8 °F 94% 29.93 in 2.0 mi SW 9.2 mph - 0.03 in Rain Light Rain
10:53 AM 54.0 °F 52.0 °F 93% 29.93 in 2.5 mi SW 9.2 mph - 0.04 in Rain Light Rain
11:40 AM 53.6 °F 53.6 °F 100% 29.91 in 2.5 mi South 5.8 mph - 0.05 in Rain Light Rain
11:53 AM 54.0 °F 52.0 °F 93% 29.89 in 2.5 mi South 6.9 mph - 0.06 in Rain Light Rain
12:06 PM 53.6 °F 51.8 °F 94% 29.89 in 8.0 mi South 8.1 mph - 0.01 in Rain Light Rain
12:28 PM 53.6 °F 51.8 °F 94% 29.88 in 8.0 mi SW 9.2 mph - 0.01 in Rain Light Rain
12:53 PM 54.0 °F 52.0 °F 93% 29.87 in 8.0 mi SW 9.2 mph - 0.01 in Rain Light Rain
1:08 PM 53.6 °F 51.8 °F 94% 29.88 in 2.0 mi WSW 11.5 mph - 0.01 in Rain Light Rain
1:12 PM 53.6 °F 51.8 °F 94% 29.88 in 2.0 mi WSW 12.7 mph - 0.01 in Rain Light Rain
1:32 PM 53.6 °F 51.8 °F 94% 29.88 in 8.0 mi WSW 13.8 mph - 0.01 in   Overcast
1:53 PM 54.0 °F 50.0 °F 86% 29.86 in 8.0 mi SW 16.1 mph 20.7 mph 0.01 in   Overcast
2:28 PM 53.6 °F 50.0 °F 88% 29.89 in 10.0 mi SW 13.8 mph - N/A   Overcast
2:53 PM 54.0 °F 48.9 °F 83% 29.89 in 10.0 mi SW 17.3 mph - N/A   Mostly Cloudy
3:53 PM 53.1 °F 46.9 °F 80% 29.90 in 10.0 mi SW 12.7 mph - N/A   Mostly Cloudy
4:53 PM 53.1 °F 46.0 °F 77% 29.92 in 10.0 mi WSW 11.5 mph - N/A   Mostly Cloudy
5:53 PM 51.1 °F 45.0 °F 80% 29.94 in 10.0 mi SW 8.1 mph - N/A   Overcast
6:53 PM 48.0 °F 44.1 °F 86% 29.97 in 10.0 mi SW 6.9 mph - N/A   Overcast
7:53 PM 48.9 °F 44.1 °F 83% 29.99 in 10.0 mi SW 4.6 mph - N/A   Mostly Cloudy
8:53 PM 48.0 °F 44.1 °F 86% 30.01 in 10.0 mi SW 6.9 mph - N/A   Mostly Cloudy
9:53 PM 46.9 °F 44.1 °F 90% 30.03 in 10.0 mi WSW 5.8 mph - N/A   Mostly Cloudy
10:53 PM 48.0 °F 41.0 °F 77% 30.06 in 10.0 mi West 6.9 mph - N/A   Overcast
11:53 PM 46.9 °F 39.9 °F 77% 30.09 in 10.0 mi West 6.9 mph - N/A   Overcast